Location: Newark
(46.1292°N, 1.0086°W)
Time: 15:16:30
(UTC+00:00)

Transit 4A - Pass Details

Date: 18 November 2019
Orbit: 870 x 974 km, 66.8° (Epoch: 14 December)

Event Time Altitude Azimuth Distance (km) Brightness Sun altitude
Exits shadow 05:09:02 - 340° (NNW) 2,741 10.1 -20.5°
Reaches altitude 10° 05:09:34 10° 344° (NNW) 2,582 10.0 -20.4°
Maximum altitude 05:14:18 24° 36° (NE) 1,772 9.7 -19.6°
Drops below altitude 10° 05:18:56 10° 89° (E) 2,531 11.4 -18.8°
Sets 05:21:54 0° 103° (ESE) 3,459 12.6 -18.3°
